This demonstration page uses our WeatherBlox Daily Observations layout. Learn more.

Left ArrowRight Arrow

39.92423, -83.80882

Hourly Observations for July 21, 2019

Temp ( °F °C ) Dew Point ( °F °C ) Humidity (%) Winds ( mph kmh ) Pressure ( in mb ) Visibility ( mi km ) Precip ( " mm )
12:56 am 00:56 Clear 77 25 75 23.9 94 94 SW 7 11 29.95 1014 10 16.0934 N/A
1:56 am 01:56 Clear 77 25 75 23.9 94 94 SW 8 13 29.93 1014 10 16.0934 N/A
2:56 am 02:56 Clear 76 24.4 75 23.9 97 97 WSW 5 7 29.92 1013 10 16.0934 N/A
3:56 am 03:56 Clear 75 23.9 75 23.9 100 100 SW 3 6 29.91 1013 10 16.0934 N/A
4:56 am 04:56 Clear 75 23.9 75 23.9 100 100 SW 5 7 29.92 1013 8 12.87472 N/A
5:56 am 05:56 Clear with Mist and Fog 73 22.8 73 22.8 100 100 N N/A 29.94 1014 6 9.65604 N/A
6:56 am 06:56 Sunny with Mist and Fog 72 22.2 72 22.2 100 100 N N/A 29.96 1014 4 6.43736 N/A
7:56 am 07:56 Cloudy with Mist and Fog 77 25 77 25 100 100 SSW 3 6 29.96 1015 6 9.65604 N/A
8:56 am 08:56 Sunny 80 26.7 77 25 90 90 SW 7 11 29.97 1015 9 14.48406 N/A
9:56 am 09:56 Partly Cloudy 83 28.3 77 25 82 82 SW 5 7 29.96 1015 10 16.0934 N/A
10:56 am 10:56 Sunny 87 30.6 76 24.4 70 70 W 5 7 29.96 1015 10 16.0934 N/A
11:53 am 11:53 Partly Cloudy with Nearby Thunderstorms 88 31 75 24 66 66 VRB 5 7 29.92 1013 10 16.0934 N/A
11:56 am 11:56 Partly Cloudy with Nearby Thunderstorms 88 31.1 76 24.4 68 68 VRB 3 6 29.96 1015 10 16.0934 N/A
12:08 pm 12:08 Mostly Cloudy 84 29 75 24 74 74 WNW 13 20 29.94 1014 10 16.0934 N/A
12:56 pm 12:56 Sunny 89 31.7 76 24.4 65 65 WSW 7 11 29.95 1014 10 16.0934 N/A
1:56 pm 13:56 Mostly Cloudy 90 32.2 75 23.9 62 62 SW 14 22 29.92 1013 10 16.0934 N/A
2:56 pm 14:56 Mostly Cloudy 84 28.9 72 22.2 67 67 S 17 28 29.92 1013 10 16.0934 N/A
3:56 pm 15:56 Sunny 85 29.4 75 23.9 72 72 SSW 8 13 29.9 1013 10 16.0934 N/A
4:56 pm 16:56 Sunny 86 30 73 22.8 65 65 S 8 13 29.9 1012 10 16.0934 N/A
5:56 pm 17:56 Sunny 85 29.4 75 23.9 72 72 SSW 8 13 29.87 1012 10 16.0934 N/A
6:56 pm 18:56 Mostly Sunny 82 27.8 75 23.9 79 79 SSW 8 13 29.88 1012 10 16.0934 N/A
7:08 pm 19:08 Partly Cloudy with Nearby Thunderstorms 82 28 75 24 79 79 WSW 10 17 29.86 1011 10 16.0934 N/A
7:24 pm 19:24 Mostly Cloudy with Nearby Thunderstorms 77 25 72 22 83 83 W 15 24 29.89 1012 10 16.0934 N/A
7:41 pm 19:41 Mostly Cloudy with Thunderstorms 75 24 72 22 89 89 WSW 9 15 29.89 1012 6 9.65604 N/A
7:56 pm 19:56 Partly Cloudy with Nearby Thunderstorms 76 24.4 72 22.2 88 88 SW 3 6 29.89 1012 10 16.0934 0.001 0.001
8:15 pm 20:15 Mostly Cloudy with Rain 73 23 73 23 100 100 N N/A 29.87 1012 10 16.0934 0.02 0.508
8:56 pm 20:56 Sunny 74 23.3 74 23.3 100 100 N N/A 29.9 1013 10 16.0934 0.02 0.508
9:56 pm 21:56 Cloudy 75 23.9 74 23.3 96 96 NW 7 11 29.92 1013 10 16.0934 N/A
10:03 pm 22:03 Cloudy with Nearby Thunderstorms 75 24 73 23 94 94 WNW 5 7 29.9 1012 10 16.0934 N/A
10:26 pm 22:26 Cloudy with Rain 73 23 73 23 100 100 NW 13 20 29.91 1013 7 11.26538 0.02 0.508
10:38 pm 22:38 Cloudy with Nearby Thunderstorms 73 23 73 23 100 100 N 10 17 29.9 1013 7 11.26538 0.05 1.27
10:50 pm 22:50 Cloudy with Nearby Thunderstorms 73 23 73 23 100 100 N 8 13 29.89 1012 10 16.0934 0.05 1.27
10:56 pm 22:56 Mostly Cloudy with Nearby Thunderstorms 73 22.8 73 22.8 100 100 N 6 9 29.91 1013 10 16.0934 0.05 1.27
11:11 pm 23:11 Mostly Cloudy with Rain 72 22 72 22 100 100 N N/A 29.9 1013 9 14.48406 0.03 0.762
11:56 pm 23:56 Clear 72 22.2 72 22.2 100 100 N N/A 29.88 1012 10 16.0934 0.03 0.762

Powered by AerisWeather